RH
70 72 73 74 71 69 70 73 78 85 90 91 88 90 92 93 83 79 75 71 68 62
61 61 64 67 68 70 73 77 82 86 89 87 92 96 88 84 79 76 69 65 62 58
58 60 64 70 72 76 83 88 92 96 96 96 92 89 86 82 75 70 66 60 55 51
55 59 62 67 74 82 92 93 91 93 92 91 90 87 83 76 69 64 55 50 45 42
53 54 60 70 76 82 87 85 90 91 90 88 87 83 76 67 56 46 41 38 36 32
51 60 67 68 73 80 84 88 87 85 84 81 71 61 50 40 35 30 27 27 29 29
60 66 67 71 77 83 85 82 81 78 70 56 46 37 31 28 29 30 32 35 38 38
69 71 72 76 82 86 83 84 81 69 54 38 29 27 30 34 37 39 38 38 40 41
82 85 88 92 90 89 88 84 68 47 29 26 27 32 36 38 39 40 42 44 47 54
90 98 94 91 89 88 81 61 36 26 24 26 31 36 40 42 46 50 59 67 68 70
93 92 88 89 86 80 54 35 26 24 28 33 38 40 43 50 57 70 74 75 78 81
87 88 88 84 75 49 36 26 26 28 33 36 36 45 53 64 76 79 80 83 86 85
89 89 85 61 47 38 31 30 29 31 35 41 45 53 64 82 86 87 87 90 91 93
87 71 56 47 43 35 32 30 30 34 40 42 52 63 83 91 93 92 90 91 92 95